Temp_Advection
nan nan nan nan nan nan nan nan nan nan nan nan nan nan nan nan nan nan nan nan nan nan
nan -0 -0 -0 -0 -0 -0 -0 0 0 0 0 -0 -0 -0 -0 -0 0 0 -0 -0 nan
nan 0 0 0 0 0 0 0 0 0 0 0 0 0 -0 -0 0 0 -0 -0 0 nan
nan 0 0 0 0 0 0 0 0 0 0 0 0 0 -0 -0 -0 -0 -0 -0 -0 nan
nan -0 -0 -0 -0 0 0 0 0 0 0 0 0 0 -0 -0 -1 -0 -0 -0 -0 nan
nan -0 -0 -0 -0 -0 -0 0 0 0 0 0 0 0 -0 -0 -0 -0 -0 -0 -0 nan
nan -0 -0 -0 -0 -0 -0 -0 0 0 0 0 0 0 1 -1 -0 -0 -0 -0 -0 nan
nan -0 -0 -0 0 -0 0 0 0 -0 0 0 0 0 2 0 -0 -0 -0 -0 -0 nan
nan -0 -0 0 -0 -0 0 0 0 0 0 -0 0 1 1 1 0 -0 -0 -0 -0 nan
nan -0 -0 -0 -0 -0 -0 0 0 0 0 0 0 0 1 1 -0 -0 -0 -0 -0 nan
nan -0 -0 -0 -0 -0 -0 0 0 0 0 0 -0 0 0 -0 -0 -0 -0 -0 -0 nan
nan -0 -0 -0 -0 -0 -0 0 -0 -0 0 0 -0 0 0 -1 -0 -0 -0 0 0 nan
nan -0 -0 -0 -0 -0 -0 -0 -0 -0 -0 -0 -0 0 0 -1 -1 -1 -0 -0 -0 nan
nan nan nan nan nan nan nan nan nan nan nan nan nan nan nan nan nan nan nan nan nan nan
Wind_Speed
14 15 16 19 20 20 22 22 24 23 22 22 22 22 22 23 20 21 20 20 20 21
15 17 18 20 20 22 23 24 25 23 23 23 23 22 23 21 22 22 23 21 21 20
16 18 19 20 22 23 24 24 24 24 24 23 23 23 22 23 24 26 25 25 24 22
18 19 19 21 22 23 24 24 24 23 24 24 24 23 23 26 27 27 28 25 23 21
18 19 20 22 23 23 24 23 23 23 23 24 24 24 25 29 29 32 31 25 21 20
18 20 21 22 23 23 24 23 23 23 24 25 25 24 27 31 35 33 25 22 22 21
19 20 21 22 22 23 23 23 23 23 24 25 26 22 32 35 36 28 24 24 22 21
19 20 21 21 22 23 23 23 23 24 25 26 26 27 45 38 34 28 25 22 22 21
20 20 21 21 22 23 23 23 24 24 26 27 26 34 46 39 31 27 25 27 23 22
19 20 20 21 22 23 23 24 25 25 26 27 27 39 44 38 32 29 29 26 24 24
19 19 20 20 22 23 23 25 25 27 27 28 29 40 45 39 34 32 30 26 24 24
19 19 19 21 22 23 24 25 25 26 28 30 31 39 42 37 34 35 34 29 26 27
17 17 19 20 21 22 22 23 24 27 27 30 32 37 36 36 35 38 35 33 34 32
17 17 18 19 21 22 22 24 26 27 28 30 32 36 34 37 38 39 36 37 42 39
Wind_Direction
351 348 347 343 341 339 337 335 335 333 333 331 330 327 324 323 319 314 310 303 300 294
348 346 344 343 341 338 336 335 332 334 332 332 331 330 328 325 318 317 309 301 299 295
348 343 342 342 339 338 337 336 335 334 334 335 334 332 331 327 320 317 312 307 300 292
347 344 342 341 339 339 338 336 336 336 337 337 336 334 331 328 324 320 316 309 304 297
345 344 343 342 342 341 339 340 339 340 341 338 336 335 332 332 326 323 317 311 304 299
347 346 345 344 344 343 342 343 343 344 343 339 338 333 337 334 328 324 319 314 309 304
350 349 346 345 345 345 346 346 346 346 344 343 341 331 338 336 331 329 323 316 310 304
351 350 348 348 347 348 348 349 348 347 346 346 347 333 336 339 338 334 326 321 314 307
352 353 351 350 350 351 353 352 351 350 349 348 348 335 342 347 350 337 331 326 320 313
354 355 354 353 355 356 355 354 354 352 351 350 349 338 344 359 356 342 336 333 328 324
357 358 357 358 360 359 358 356 355 354 352 351 352 341 344 2 358 350 346 340 334 328
1 1 360 2 2 1 359 359 358 357 355 354 353 344 349 357 355 353 351 349 343 338
5 8 5 6 5 4 4 2 2 2 0 357 356 347 354 0 355 350 349 349 344 341
14 15 11 12 12 11 12 10 9 8 6 3 0 357 17 12 4 354 356 357 353 351
Height
1551 1547 1543 1538 1533 1529 1523 1518 1513 1507 1502 1497 1492 1487 1482 1477 1472 1468 1463 1458 1455 1452
1551 1546 1542 1537 1533 1528 1523 1517 1511 1506 1500 1495 1490 1485 1480 1474 1469 1464 1459 1454 1451 1448
1550 1546 1541 1537 1532 1527 1521 1516 1510 1504 1499 1494 1489 1483 1477 1472 1466 1460 1455 1450 1446 1442
1550 1545 1541 1537 1531 1526 1520 1515 1509 1503 1498 1493 1487 1481 1475 1469 1462 1455 1449 1445 1440 1437
1550 1545 1541 1536 1530 1525 1519 1514 1508 1503 1497 1491 1485 1479 1472 1465 1458 1450 1443 1439 1435 1431
1549 1545 1540 1535 1530 1524 1519 1513 1507 1502 1496 1490 1483 1477 1470 1462 1453 1445 1439 1434 1430 1427
1549 1545 1540 1535 1529 1524 1518 1512 1507 1502 1496 1489 1482 1475 1466 1457 1448 1440 1434 1429 1425 1421
1549 1545 1541 1535 1529 1524 1518 1513 1507 1501 1495 1489 1482 1472 1463 1453 1443 1436 1431 1426 1421 1416
1550 1546 1541 1535 1530 1525 1519 1514 1508 1501 1495 1488 1482 1472 1462 1450 1440 1434 1428 1420 1415 1411
1551 1547 1542 1536 1531 1525 1520 1514 1508 1502 1495 1488 1482 1471 1461 1448 1439 1432 1425 1417 1411 1406
1552 1548 1543 1538 1533 1527 1522 1516 1509 1503 1496 1489 1483 1471 1459 1448 1439 1431 1423 1415 1409 1403
1553 1549 1544 1539 1534 1529 1523 1517 1511 1504 1497 1490 1482 1471 1459 1447 1438 1430 1421 1414 1407 1401
1554 1550 1545 1541 1536 1531 1525 1520 1513 1506 1500 1492 1484 1474 1460 1448 1439 1430 1419 1412 1405 1398
1555 1551 1547 1543 1539 1533 1527 1522 1515 1508 1502 1494 1485 1475 1462 1450 1441 1431 1419 1409 1401 1394